Weather History for Dublin, GA

Change the Weather History Date:

Tuesday, May 15, 2012

  Actual Average Record
Temperature  
Mean Temperature 76 °F -  
Max Temperature 89 °F 86 °F 98 °F (1933)
Min Temperature 62 °F 58 °F 47 °F (1978)
Cooling Degree Days 10    
Growing Degree Days 26 (Base 50)    
Moisture  
Dew Point 63 °F    
Average Humidity 68    
Maximum Humidity 100    
Minimum Humidity 31    
Precipitation  
Precipitation 0.00 in - - ()
Sea Level Pressure  
Sea Level Pressure 29.97 in    
Wind  
Wind Speed 5 mph (West)    
Max Wind Speed 12 mph    
Max Gust Speed 17 mph    
Visibility 10 miles    
Events Fog    
Averages and records for this station are not official NWS values.
T = Trace of Precipitation, MM = Missing Value Source: NWS Daily Summary

Daily Weather History Graph

Daily Weather History Graph

Search for Another Location

Airport:

Trip Planner

Search our weather history database for the weather conditions in past years. The results will help you decide how hot, cold, wet, or windy it might be!

Date:

Astronomy

May. 15, 2012 Rise Set
Actual Time 6:33 AM EDT 8:23 PM EDT
Civil Twilight 6:06 AM EDT 8:51 PM EDT
Nautical Twilight 5:33 AM EDT 9:23 PM EDT
Astronomical Twilight 4:58 AM EDT 9:58 PM EDT
Moon 3:19 AM EDT (5/15) 3:55 PM EDT (5/15)
Length of Visible Light 14h 44m
Length of Day
13h 50m
Waning Crescent, 24% of the Moon is Illuminated
May 15
Waning Crescent
May 20
New
May 28
First Quarter
Jun 4
Full
Jun 11
Last Quarter

Hourly Weather History & Observations

Time (EDT) Temp. Heat Index Dew Point Humidity Pressure Visibility Wind Dir Wind Speed Gust Speed Precip Events Conditions
12:15 AM 69.8 °F - 68.0 °F 94% 29.98 in 10.0 mi South 4.6 mph - N/A   Clear
12:35 AM 69.8 °F - 68.0 °F 94% 29.99 in 10.0 mi South 6.9 mph - N/A   Clear
12:55 AM 69.8 °F - 68.0 °F 94% 29.99 in 10.0 mi SSW 5.8 mph - N/A   Clear
1:15 AM 69.8 °F - 68.0 °F 94% 29.99 in 10.0 mi SW 4.6 mph - N/A   Clear
1:35 AM 69.8 °F - 68.0 °F 94% 29.98 in 10.0 mi SW 5.8 mph - N/A   Scattered Clouds
1:55 AM 69.8 °F - 68.0 °F 94% 29.98 in 10.0 mi SSW 5.8 mph - N/A   Mostly Cloudy
2:15 AM 69.8 °F - 68.0 °F 94% 29.97 in 10.0 mi WSW 4.6 mph - N/A   Mostly Cloudy
2:35 AM 69.8 °F - 66.2 °F 88% 29.96 in 10.0 mi SW 4.6 mph - N/A   Scattered Clouds
2:55 AM 68.0 °F - 66.2 °F 94% 29.96 in 10.0 mi SW 4.6 mph - N/A   Scattered Clouds
3:15 AM 68.0 °F - 64.4 °F 88% 29.96 in 10.0 mi WSW 3.5 mph - N/A   Scattered Clouds
3:35 AM 68.0 °F - 64.4 °F 88% 29.95 in 10.0 mi West 3.5 mph - N/A   Clear
3:55 AM 68.0 °F - 64.4 °F 88% 29.95 in 10.0 mi West 4.6 mph - N/A   Clear
4:15 AM 66.2 °F - 64.4 °F 94% 29.95 in 10.0 mi West 3.5 mph - N/A   Clear
4:35 AM 66.2 °F - 64.4 °F 94% 29.95 in 10.0 mi WNW 3.5 mph - N/A   Clear
4:55 AM 66.2 °F - 64.4 °F 94% 29.96 in 10.0 mi South 4.6 mph - N/A   Clear
5:15 AM 64.4 °F - 64.4 °F 100% 29.96 in 10.0 mi Calm Calm - N/A   Clear
5:55 AM 64.4 °F - 64.4 °F 100% 29.96 in 7.0 mi Calm Calm - N/A   Scattered Clouds
6:15 AM 62.6 °F - 62.6 °F 100% 29.97 in 0.5 mi Calm Calm - N/A Fog Fog
6:35 AM 62.6 °F - 62.6 °F 100% 29.98 in 0.2 mi Calm Calm - N/A Fog Fog
6:55 AM 62.6 °F - 62.6 °F 100% 29.98 in 3.0 mi Calm Calm - N/A   Clear
7:15 AM 64.4 °F - 64.4 °F 100% 29.99 in 5.0 mi Calm Calm - N/A   Clear
7:35 AM 66.2 °F - 64.4 °F 94% 29.99 in 7.0 mi WSW 3.5 mph - N/A   Clear
7:55 AM 68.0 °F - 66.2 °F 94% 30.00 in 10.0 mi West 4.6 mph - N/A   Clear
8:15 AM 69.8 °F - 66.2 °F 88% 29.99 in 10.0 mi West 4.6 mph - N/A   Clear
8:35 AM 69.8 °F - 66.2 °F 88% 30.00 in 10.0 mi WSW 5.8 mph - N/A   Clear
8:55 AM 71.6 °F - 66.2 °F 83% 30.00 in 10.0 mi WSW 4.6 mph - N/A   Clear
9:15 AM 73.4 °F - 68.0 °F 83% 30.01 in 10.0 mi West 5.8 mph - N/A   Clear
9:35 AM 73.4 °F - 66.2 °F 78% 30.01 in 10.0 mi Calm Calm - N/A   Clear
9:55 AM 77.0 °F - 66.2 °F 69% 30.01 in 10.0 mi WSW 3.5 mph - N/A   Clear
10:15 AM 78.8 °F - 66.2 °F 65% 30.02 in 10.0 mi West 3.5 mph - N/A   Clear
10:35 AM 80.6 °F 82.3 °F 64.4 °F 58% 30.02 in 10.0 mi West 5.8 mph - N/A   Clear
10:55 AM 80.6 °F 82.3 °F 64.4 °F 58% 30.01 in 10.0 mi West 3.5 mph - N/A   Scattered Clouds
11:15 AM 80.6 °F 82.3 °F 64.4 °F 58% 30.02 in 10.0 mi West 5.8 mph - N/A   Mostly Cloudy
11:35 AM 82.4 °F 83.9 °F 64.4 °F 54% 30.02 in 10.0 mi West 6.9 mph - N/A   Scattered Clouds
11:55 AM 80.6 °F 81.8 °F 62.6 °F 54% 30.01 in 10.0 mi WNW 5.8 mph - N/A   Mostly Cloudy
12:15 PM 84.2 °F 85.0 °F 62.6 °F 48% 30.01 in 10.0 mi WSW 8.1 mph - N/A   Mostly Cloudy
12:35 PM 86.0 °F 86.6 °F 62.6 °F 45% 30.00 in 10.0 mi SW 6.9 mph - N/A   Scattered Clouds
12:55 PM 82.4 °F 82.9 °F 60.8 °F 48% 30.00 in 10.0 mi SW 8.1 mph 17.3 mph N/A   Scattered Clouds
1:15 PM 86.0 °F 86.6 °F 62.6 °F 45% 29.99 in 10.0 mi SW 10.4 mph 16.1 mph N/A   Mostly Cloudy
1:35 PM 84.2 °F 84.4 °F 60.8 °F 45% 29.99 in 10.0 mi WSW 8.1 mph - N/A   Mostly Cloudy
1:55 PM 86.0 °F 86.1 °F 60.8 °F 43% 29.98 in 10.0 mi WNW 9.2 mph 17.3 mph N/A   Mostly Cloudy
2:15 PM 86.0 °F 86.1 °F 60.8 °F 43% 29.97 in 10.0 mi West 9.2 mph 16.1 mph N/A   Scattered Clouds
2:35 PM 87.8 °F 87.1 °F 59.0 °F 38% 29.96 in 10.0 mi West 11.5 mph 17.3 mph N/A   Mostly Cloudy
3:15 PM 87.8 °F 86.1 °F 55.4 °F 33% 29.95 in 10.0 mi West 11.5 mph 17.3 mph N/A   Scattered Clouds
3:35 PM 87.8 °F 86.5 °F 57.2 °F 35% 29.94 in 10.0 mi West 10.4 mph - N/A   Scattered Clouds
3:55 PM 87.8 °F 86.5 °F 57.2 °F 35% 29.93 in 10.0 mi WNW 4.6 mph - N/A   Clear
4:15 PM 89.6 °F 88.1 °F 57.2 °F 33% 29.93 in 10.0 mi NW 10.4 mph 17.3 mph N/A   Scattered Clouds
4:35 PM 89.6 °F 87.7 °F 55.4 °F 31% 29.92 in 10.0 mi NW 10.4 mph - N/A   Clear
4:55 PM 87.8 °F 86.1 °F 55.4 °F 33% 29.92 in 10.0 mi West 9.2 mph 17.3 mph N/A   Scattered Clouds
5:15 PM 87.8 °F 86.1 °F 55.4 °F 33% 29.93 in 10.0 mi West 10.4 mph - N/A   Scattered Clouds
5:35 PM 87.8 °F 86.1 °F 55.4 °F 33% 29.93 in 10.0 mi NW 6.9 mph - N/A   Mostly Cloudy
5:55 PM 84.2 °F 83.5 °F 57.2 °F 40% 29.93 in 10.0 mi NW 6.9 mph - N/A   Overcast
6:15 PM 82.4 °F 82.5 °F 59.0 °F 45% 29.93 in 10.0 mi NNW 6.9 mph - N/A   Overcast
6:35 PM 82.4 °F 82.5 °F 59.0 °F 45% 29.93 in 10.0 mi WNW 6.9 mph - N/A   Overcast
6:55 PM 82.4 °F 82.9 °F 60.8 °F 48% 29.93 in 10.0 mi NW 4.6 mph - N/A   Overcast
7:15 PM 82.4 °F 82.9 °F 60.8 °F 48% 29.92 in 10.0 mi WNW 3.5 mph - N/A   Mostly Cloudy
7:35 PM 80.6 °F 81.5 °F 60.8 °F 51% 29.92 in 10.0 mi Calm Calm - N/A   Mostly Cloudy
7:55 PM 80.6 °F 81.5 °F 60.8 °F 51% 29.93 in 10.0 mi Calm Calm - N/A   Overcast
8:15 PM 78.8 °F - 62.6 °F 57% 29.93 in 10.0 mi Calm Calm - N/A   Overcast
8:35 PM 78.8 °F - 64.4 °F 61% 29.94 in 10.0 mi Calm Calm - N/A   Overcast
8:55 PM 77.0 °F - 64.4 °F 65% 29.94 in 10.0 mi Calm Calm - N/A   Overcast
9:15 PM 77.0 °F - 62.6 °F 61% 29.95 in 10.0 mi Calm Calm - N/A   Overcast
9:35 PM 77.0 °F - 62.6 °F 61% 29.95 in 10.0 mi Calm Calm - N/A   Overcast
9:55 PM 77.0 °F - 62.6 °F 61% 29.96 in 10.0 mi Calm Calm - N/A   Overcast
10:15 PM 75.2 °F - 62.6 °F 65% 29.97 in 10.0 mi Calm Calm - N/A   Overcast
10:35 PM 73.4 °F - 64.4 °F 73% 29.98 in 10.0 mi Calm Calm - N/A   Overcast
10:55 PM 73.4 °F - 64.4 °F 73% 29.98 in 10.0 mi Calm Calm - N/A   Scattered Clouds
11:15 PM 71.6 °F - 64.4 °F 78% 29.98 in 10.0 mi Calm Calm - N/A   Scattered Clouds
11:35 PM 69.8 °F - 62.6 °F 78% 29.98 in 10.0 mi Calm Calm - N/A   Scattered Clouds
11:55 PM 69.8 °F - 62.6 °F 78% 29.98 in 10.0 mi Calm Calm - N/A   Mostly Cloudy